Hourly Data Report for October 11, 2013

All times are specified in Local Standard Time (LST). Add 1 hour to adjust for Daylight Saving Time where and when it is observed.

POND INLET A
NUNAVUT

72°41'22.000" N
77°58'08.000" W
61.60 m
2403206
71095
YIO

Related Data

No related data is available for this station

Download Data

Hourly Data (October 2013)
Hourly Data Report for October 11, 2013
Temp Definition
°C
Dew Point Temp Definition
°C
Rel Hum Definition
%
Wind Dir Definition
10's deg

Wind Spd Definition
km/h
Visibility Definition
km
Stn Press Definition
kPa
Hmdx Definition


Wind Chill Definition


Weather Definition


TIME
00:00 Legend Double Dagger -8.9 -10.8 86 16 17 16.1 101.28   -16 LegendNANA
01:00 Legend Double Dagger -8.9 -10.8 86 16 15 16.1 101.32   -15 LegendNANA
02:00 Legend Double Dagger -9.0 -10.9 86 16 17 16.1 101.35   -16 LegendNANA
03:00 Legend Double Dagger -9.4 -11.2 87 15 21 16.1 101.37   -17 LegendNANA
04:00 Legend Double Dagger -9.3 -11.0 88 15 17 16.1 101.39   -16 LegendNANA
05:00 Legend Double Dagger -9.3 -10.9 88 15 18 16.1 101.39   -17 LegendNANA
06:00 Legend Double Dagger -9.5 -11.0 89 15 18 16.1 101.41   -17 LegendNANA
07:00 Legend Double Dagger -9.9 -11.2 90 16 22 16.1 101.45   -18 LegendNANA
08:00 Legend Double Dagger -9.0 -10.6 88 16 17 16.1 101.40   -16 LegendNANA
09:00 Legend Double Dagger -9.5 -11.0 89 15 21 16.1 101.39   -17 LegendNANA
10:00 Legend Double Dagger -9.3 -10.8 89 17 17 16.1 101.38   -16 LegendNANA
11:00 Legend Double Dagger -8.7 -10.2 89 16 11 16.1 101.37   -14 LegendNANA
12:00 Legend Double Dagger -8.2 -10.0 87 16 5 16.1 101.39   -11 LegendNANA
13:00 Legend Double Dagger -7.7 -9.7 86 17 5 16.1 101.36   -10 LegendNANA
14:00 Legend Double Dagger -7.6 -9.6 86 18 9 16.1 101.31   -12 LegendNANA
15:00 Legend Double Dagger -8.2 -10.1 86 16 11 11.3 101.29   -13 LegendNANA
16:00 Legend Double Dagger -8.6 -12.4 74 17 9 11.3 101.23   -13 LegendNANA
17:00 Legend Double Dagger -8.1 -12.4 71 36 5 9.7 101.18   -11 LegendNANA
18:00 Legend Double Dagger -7.4 -10.0 82 8 9 16.1 101.13   -12 LegendNANA
19:00 Legend Double Dagger -6.8 -9.2 83 6 15 16.1 101.09   -13 LegendNANA
20:00 Legend Double Dagger -6.6 -9.7 79 7 13 16.1 101.03   -12 LegendNANA
21:00 Legend Double Dagger -6.1 -10.5 72 7 8 16.1 100.96   -10 LegendNANA
22:00 Legend Double Dagger -5.5 -11.7 62 7 4 16.1 100.85   -7 LegendNANA
23:00 Legend Double Dagger -5.5 -10.4 69 19 9 16.1 100.77   -10 LegendNANA

Notes on Data Quality.

Legend

  • E = Estimated
  • M = Missing
  • NA = Not Available
  • ‡ = Partner data that is not subject to review by the National Climate Archives
Date modified: